Flag for U.S.A. Weather past 2 weeks in Tulsa, Oklahoma, U.S.A.

Now
42 °F

Sunny.


Feels Like: 35 °F
Forecast: 28 / 54 °F
Wind: 15 mph from Southwest

Location: Tulsa International Airport

Current Time: Mar 6, 2015 at 10:29:37 AM

Latest Report: Mar 6, 2015 at 9:53 AM


Visibility: 10 mi

Pressure: 30.50 "Hg

Humidity: 41%

Dew point: 20 °F

Location of TulsaLocation

Historic Weather in Tulsa — Graph

°F

Tulsa temperature yesterday

Maximum temperature yesterday: 45 °F (at 2:53 PM)
Minimum temperature yesterday: 19 °F (at 3:53 AM)
Average temperature yesterday: 32 °F

Past Weeks' High & Low Weather Summary

 TemperatureHumidityPressure
High59 °F (Mar 3, 3:53 PM)100% (Feb 20, 8:53 PM)30.73 "Hg (Feb 20, 8:53 PM)
Low14 °F (Feb 27, 6:53 AM)26% (Mar 5, 4:53 PM)29.77 "Hg (Feb 25, 4:53 PM)
Average31 °F70%30.28 "Hg
* Reported Feb 19 8:53 AM — Mar 6 8:53 AM, Tulsa, Weather by CustomWeather, © 2015

Note: Actual official high and low records may vary slightly from our data, if they occured in-between our weather recording intervals... More about our weather records

Advertising

Tulsa weather history for previous 24 hours

 ConditionsComfort  
Time TempWeatherWind HumidityBarometerVisibility
8:53 AM
Fri, Mar 6
37 °FSunny.14 mph50%30.51 "Hg10 mi
7:53 AM32 °FSunny.9 mph61%30.50 "Hg10 mi
6:53 AM27 °FSunny.9 mph72%30.50 "Hg10 mi
5:53 AM28 °FClear.8 mph69%30.50 "Hg10 mi
4:53 AM29 °FClear.9 mph66%30.50 "Hg10 mi
3:53 AM30 °FClear.9 mph61%30.50 "Hg10 mi
2:53 AM31 °FClear.9 mph59%30.50 "Hg10 mi
1:53 AM29 °FClear.7 mph64%30.53 "Hg10 mi
12:53 AM29 °FPassing clouds.6 mph64%30.53 "Hg10 mi
11:53 PM
Thu, Mar 5
32 °FClear.9 mph59%30.53 "Hg10 mi
10:53 PM33 °FClear.10 mph56%30.54 "Hg10 mi
9:53 PM34 °FClear.14 mph54%30.54 "Hg10 mi
8:53 PM35 °FClear.10 mph52%30.53 "Hg10 mi
7:53 PM35 °FClear.7 mph50%30.53 "Hg10 mi
6:53 PM41 °FClear.No wind26%30.52 "Hg10 mi
5:53 PM42 °FSunny.5 mph29%30.51 "Hg10 mi
4:53 PM45 °FSunny.7 mph26%30.51 "Hg10 mi
3:53 PM45 °FPassing clouds.12 mph27%30.51 "Hg10 mi
2:53 PM45 °FPassing clouds.6 mph30%30.52 "Hg10 mi
1:53 PM42 °FPassing clouds.3 mph32%30.53 "Hg10 mi
12:53 PM40 °FPassing clouds.5 mph36%30.58 "Hg10 mi
11:53 AM37 °FSunny.No wind41%30.59 "Hg10 mi
10:53 AM35 °FSunny.5 mph40%30.60 "Hg10 mi
Weather by CustomWeather, © 2015

See weather overviewHow to use our weather pages